DW8935 Weather Reports


Display with metric or nautical units.
time (UTC)temp
F
wind
direction
speed
MPH
gust
MPH
rain 1hr
in
rain 24hr
in
rain mn
in
humidity
%
barometer
mb
20260509181603 56 275 0.0 2.0 0.00 0.00 0.00 91 1028.8
20260509180046 56 240 0.0 0.0 0.00 0.00 0.00 91 1028.8
20260509174551 56 240 0.0 0.0 0.00 0.00 0.00 91 1028.8
20260509173047 56 240 0.0 0.0 0.00 0.00 0.00 91 1028.7
20260509171548 56 240 0.0 0.0 0.00 0.00 0.00 91 1028.6
20260509170044 56 240 0.0 0.0 0.00 0.00 0.00 91 1028.8
20260509164543 56 240 0.0 0.0 0.00 0.00 0.00 91 1028.9
20260509163054 56 240 0.0 0.0 0.00 0.00 0.00 91 1028.9
20260509161542 56 241 0.0 0.0 0.00 0.00 0.00 91 1028.9
20260509160040 56 240 0.0 0.0 0.00 0.00 0.00 90 1029.0
20260509154540 57 241 0.0 0.0 0.00 0.00 0.00 90 1029.0
20260509153037 57 241 0.0 1.0 0.00 0.00 0.00 90 1029.1
20260509151538 57 203 0.0 0.0 0.00 0.00 0.00 89 1029.1
20260509150038 57 203 0.0 0.0 0.00 0.00 0.00 89 1029.1
20260509144537 57 203 0.0 0.0 0.00 0.00 0.00 89 1029.1
20260509143036 57 203 0.0 0.0 0.00 0.00 0.00 89 1029.1
20260509141536 57 203 1.0 4.0 0.00 0.00 0.00 88 1029.1
20260509140035 57 203 0.0 1.0 0.00 0.00 0.00 88 1029.0
20260509134538 57 200 0.0 0.0 0.00 0.00 0.00 87 1029.1
20260509133033 57 200 0.0 0.0 0.00 0.00 0.00 87 1029.1
20260509131535 57 200 0.0 0.0 0.00 0.00 0.00 87 1029.1
20260509130033 57 200 0.0 0.0 0.00 0.00 0.00 87 1029.1
20260509124533 57 200 0.0 0.0 0.00 0.00 0.00 87 1029.0
20260509123033 57 200 0.0 0.0 0.00 0.00 0.00 87 1029.2
20260509121538 57 200 0.0 0.0 0.00 0.00 0.00 86 1029.2
20260509120035 57 200 0.0 0.0 0.00 0.00 0.00 86 1029.2
20260509114534 57 200 0.0 0.0 0.00 0.00 0.00 86 1029.2
20260509113030 57 200 0.0 0.0 0.00 0.00 0.00 86 1028.9
20260509111529 57 200 0.0 0.0 0.00 0.00 0.00 86 1028.8
20260509110029 56 200 1.0 4.0 0.00 0.00 0.00 87 1028.7
20260509104534 56 190 0.0 0.0 0.00 0.00 0.00 87 1028.7
20260509103029 56 189 0.0 0.0 0.00 0.00 0.00 87 1028.6
20260509101529 56 168 0.0 0.0 0.00 0.00 0.00 87 1028.6
20260509100027 57 142 0.0 0.0 0.00 0.00 0.00 86 1028.6
20260509094526 58 142 0.0 0.0 0.00 0.00 0.00 86 1028.5
20260509093025 58 142 0.0 0.0 0.00 0.00 0.00 86 1028.5
20260509091532 59 142 0.0 0.0 0.00 0.00 0.00 85 1028.3
20260509090024 59 142 0.0 0.0 0.00 0.00 0.00 86 1028.3
20260509084528 59 142 0.0 0.0 0.00 0.00 0.00 85 1028.1
20260509083024 59 142 0.0 0.0 0.00 0.00 0.00 85 1028.0
20260509081523 59 142 0.0 0.0 0.00 0.00 0.00 85 1027.8
20260509080030 59 142 0.0 0.0 0.00 0.00 0.00 85 1027.6
20260509074525 60 149 0.0 0.0 0.00 0.00 0.00 84 1027.5
20260509073038 60 182 0.0 4.0 0.00 0.00 0.00 83 1027.3
20260509071522 61 130 0.0 3.0 0.00 0.00 0.00 82 1027.2
20260509070023 61 165 0.0 4.0 0.00 0.00 0.00 81 1027.2
20260509064523 62 189 0.0 3.0 0.00 0.00 0.00 80 1027.1
20260509063028 62 263 1.0 4.0 0.00 0.00 0.00 79 1027.1
20260509061524 62 261 0.0 3.0 0.00 0.00 0.00 78 1027.0
20260509060022 62 273 0.0 4.0 0.00 0.00 0.00 77 1026.9
20260509054529 63 279 1.0 5.0 0.00 0.00 0.00 76 1026.9
20260509053020 64 246 1.0 4.0 0.00 0.00 0.00 76 1026.8
20260509051521 64 237 2.0 6.0 0.00 0.00 0.00 75 1026.8
20260509050032 64 211 2.0 7.0 0.00 0.00 0.00 74 1026.8
20260509044520 65 225 1.0 5.0 0.00 0.00 0.00 73 1026.9
20260509043036 64 238 1.0 4.0 0.00 0.00 0.00 73 1026.8
20260509041519 64 210 1.0 4.0 0.00 0.00 0.00 71 1026.9
20260509040017 64 308 1.0 3.0 0.00 0.00 0.00 73 1026.9
20260509034516 63 213 0.0 3.0 0.00 0.00 0.00 74 1027.0
20260509033016 64 218 0.0 3.0 0.00 0.00 0.00 72 1027.0
20260509031518 63 219 0.0 3.0 0.00 0.00 0.00 73 1027.3
20260509030014 64 150 0.0 4.0 0.00 0.00 0.00 73 1027.3
20260509024511 63 78 2.0 5.0 0.00 0.00 0.00 77 1027.4
20260509023017 62 150 0.0 3.0 0.00 0.00 0.00 76 1027.7
20260509021517 62 169 0.0 6.0 0.00 0.00 0.00 74 1027.9
20260509020008 62 205 1.0 4.0 0.00 0.00 0.00 75 1028.0
20260509014505 62 279 0.0 5.0 0.00 0.00 0.00 75 1028.2
20260509013013 62 234 1.0 5.0 0.00 0.00 0.00 76 1028.2
20260509011503 60 217 0.0 3.0 0.00 0.00 0.00 80 1028.4
20260509010001 61 190 3.0 6.0 0.00 0.00 0.00 80 1028.4
20260509004625 61 184 1.0 4.0 0.00 0.00 0.00 82 1028.4
20260509004505 61 184 2.0 4.0 0.00 0.00 0.00 82 1028.3
20260509003101 60 144 0.0 4.0 0.00 0.00 0.00 86 1028.2
20260509001555 59 183 2.0 7.0 0.00 0.00 0.00 89 1028.3
20260509000053 58 200 1.0 3.0 0.00 0.00 0.00 91 1028.4
20260508234552 57 184 1.0 6.0 0.00 0.00 0.00 92 1028.3
20260508233058 56 207 0.0 2.0 0.00 0.00 0.00 93 1028.3
20260508231545 56 253 0.0 3.0 0.00 0.00 0.00 93 1028.3
20260508230054 55 241 0.0 2.0 0.00 0.00 0.00 93 1028.2
20260508224540 54 292 0.0 0.0 0.00 0.00 0.00 93 1028.0
20260508223039 54 294 0.0 0.0 0.00 0.00 0.00 93 1027.9
20260508221540 53 294 0.0 1.0 0.00 0.00 0.00 93 1027.8
20260508220036 53 294 0.0 1.0 0.00 0.00 0.00 92 1027.6
20260508214536 53 292 0.0 0.0 0.00 0.00 0.00 92 1027.5
20260508213035 53 292 0.0 0.0 0.00 0.00 0.00 92 1027.5
20260508211536 53 292 0.0 1.0 0.00 0.00 0.00 92 1027.4
20260508210039 54 202 0.0 0.0 0.00 0.00 0.00 92 1027.3
20260508204537 54 202 0.0 0.0 0.00 0.00 0.00 92 1027.3
20260508203032 54 203 0.0 1.0 0.00 0.00 0.00 92 1027.1
20260508201531 54 306 0.0 0.0 0.00 0.00 0.00 92 1027.0
20260508200039 53 306 0.0 0.0 0.00 0.00 0.00 92 1026.8
20260508194529 53 306 0.0 0.0 0.00 0.00 0.00 91 1026.6
20260508193028 54 306 0.0 0.0 0.00 0.00 0.00 91 1026.4
20260508191525 54 306 0.0 0.0 0.00 0.00 0.00 91 1026.3
20260508190029 54 308 0.0 1.0 0.00 0.00 0.00 91 1026.2
20260508184550 54 306 0.0 2.0 0.00 0.00 0.00 91 1026.2
20260508183024 54 300 0.0 2.0 0.00 0.00 0.00 90 1026.0